Milwaukee, WI

2:17 PM CDT on April 25, 2018 (GMT -0500)
Gen Mitchell International

Weather History for KMKE - November, 2012

Change the Weather History Date:

Saturday, November 3, 2012

  Actual Average Record
Temperature  
Mean Temperature 38 °F 45 °F  
Max Temperature 44 °F 52 °F 74 °F (1964)
Min Temperature 31 °F 37 °F 9 °F (1951)
Degree Days  
Heating Degree Days 27 20  
Month to date heating degree days 74 59  
Since 1 July heating degree days 676 644  
Cooling Degree Days 0 0  
Month to date cooling degree days 0 0  
Year to date cooling degree days 1041 641  
Moisture  
Dew Point 29 °F    
Average Humidity 72    
Maximum Humidity 82    
Minimum Humidity 62    
Precipitation  
Precipitation 0.00 in 0.09 in 1.31 in (1935)
Month to date precipitation T 0.28  
Year to date precipitation 25.07 30.29  
Snow  
Snow 0.00 in 0.10 in 1.70 in (1951)
Month to date snowfall 0.0 0.1  
Since 1 July snowfall 0.0 0.4  
Since 1 September snowfall 0.0 0.4  
Snow Depth 0.00 in    
Sea Level Pressure  
Sea Level Pressure 30.22 in    
Wind  
Wind Speed 7 mph (NNW)    
Max Wind Speed 13 mph    
Max Gust Speed 16 mph    
Visibility 10 miles    
Events      
T = Trace of Precipitation, MM = Missing Value Source: NWS Daily Summary

Daily Weather History Graph

Daily Weather History Graph

Search for Another Location

Airport or City:

Astronomy

Nov. 03, 2012 Rise Set
Actual Time 7:29 AM CDT 5:40 PM CDT
Civil Twilight 6:59 AM CDT 6:10 PM CDT
Nautical Twilight 6:25 AM CDT 6:43 PM CDT
Astronomical Twilight 5:52 AM CDT 7:16 PM CDT
Moon 9:19 PM CDT (11/3) 11:35 AM CDT (11/3)
Length of Visible Light 11h 10m
Length of Day
10h 11m
Waning Gibbous, 80% of the Moon is Illuminated
Nov 3
Waning Gibbous
Nov 6
Last Quarter
Nov 13
New
Nov 20
First Quarter
Nov 28
Full

Hourly Weather History & Observations

Time (CDT) Temp. Windchill Dew Point Humidity Pressure Visibility Wind Dir Wind Speed Gust Speed Precip Events Conditions
12:02 AM 39.2 °F - 28.4 °F 65% 30.18 in 10.0 mi Calm Calm - N/A   Overcast
12:52 AM 37.0 °F 33.3 °F 28.9 °F 73% 30.19 in 10.0 mi North 4.6 mph - N/A   Scattered Clouds
1:52 AM 35.1 °F 30.1 °F 28.0 °F 76% 30.20 in 10.0 mi WNW 5.8 mph - N/A   Partly Cloudy
2:52 AM 33.1 °F 26.9 °F 27.0 °F 78% 30.20 in 10.0 mi NW 6.9 mph - N/A   Scattered Clouds
3:52 AM 34.0 °F 28.0 °F 27.0 °F 75% 30.19 in 10.0 mi NW 6.9 mph - N/A   Mostly Cloudy
3:59 AM 33.8 °F 28.6 °F 26.6 °F 75% 30.17 in 10.0 mi NW 5.8 mph - N/A   Mostly Cloudy
4:52 AM 34.0 °F 28.0 °F 28.0 °F 79% 30.18 in 10.0 mi NNW 6.9 mph - N/A   Mostly Cloudy
5:52 AM 35.1 °F 29.3 °F 30.0 °F 82% 30.20 in 10.0 mi NNW 6.9 mph - N/A   Mostly Cloudy
6:52 AM 35.1 °F 29.3 °F 28.9 °F 78% 30.21 in 10.0 mi WNW 6.9 mph - N/A   Mostly Cloudy
7:52 AM 34.0 °F 28.0 °F 28.0 °F 79% 30.23 in 10.0 mi NW 6.9 mph - N/A   Mostly Cloudy
7:59 AM 33.8 °F 27.0 °F 28.4 °F 81% 30.20 in 10.0 mi NNW 8.1 mph - N/A   Mostly Cloudy
8:52 AM 35.1 °F 30.1 °F 28.0 °F 76% 30.25 in 10.0 mi NW 5.8 mph - N/A   Mostly Cloudy
9:52 AM 37.0 °F 33.3 °F 30.0 °F 76% 30.25 in 10.0 mi NNW 4.6 mph - N/A   Overcast
10:26 AM 39.2 °F 35.9 °F 30.2 °F 70% 30.23 in 10.0 mi North 4.6 mph - N/A   Overcast
10:52 AM 39.9 °F 33.9 °F 32.0 °F 73% 30.25 in 10.0 mi North 9.2 mph - N/A   Overcast
11:52 AM 42.1 °F 37.7 °F 30.9 °F 65% 30.25 in 10.0 mi NNE 6.9 mph - N/A   Mostly Cloudy
12:31 PM 42.8 °F 37.0 °F 30.2 °F 61% 30.22 in 10.0 mi NNE 10.4 mph - N/A   Overcast
12:52 PM 41.0 °F 34.3 °F 33.1 °F 73% 30.24 in 10.0 mi NE 11.5 mph - N/A   Overcast
1:19 PM 41.0 °F 35.2 °F 33.8 °F 76% 30.21 in 10.0 mi North 9.2 mph - N/A   Overcast
1:52 PM 42.1 °F 36.6 °F 32.0 °F 67% 30.22 in 10.0 mi NNE 9.2 mph - N/A   Mostly Cloudy
2:52 PM 42.1 °F 36.6 °F 30.9 °F 65% 30.21 in 10.0 mi NNE 9.2 mph - N/A   Mostly Cloudy
3:52 PM 42.1 °F 36.6 °F 30.0 °F 62% 30.22 in 10.0 mi NE 9.2 mph - N/A   Mostly Cloudy
4:52 PM 41.0 °F 35.8 °F 30.0 °F 65% 30.22 in 10.0 mi ENE 8.1 mph - N/A   Mostly Cloudy
5:52 PM 39.0 °F 34.8 °F 30.0 °F 70% 30.22 in 10.0 mi NE 5.8 mph - N/A   Mostly Cloudy
6:52 PM 37.9 °F - 30.0 °F 73% 30.23 in 10.0 mi Calm Calm - N/A   Mostly Cloudy
7:52 PM 39.9 °F 36.7 °F 30.9 °F 70% 30.24 in 10.0 mi North 4.6 mph - N/A   Overcast
8:52 PM 37.9 °F 32.7 °F 27.0 °F 65% 30.24 in 10.0 mi NNW 6.9 mph - N/A   Mostly Cloudy
9:52 PM 37.0 °F 33.3 °F 27.0 °F 67% 30.24 in 10.0 mi NW 4.6 mph - N/A   Scattered Clouds
10:52 PM 36.0 °F 31.1 °F 26.1 °F 67% 30.24 in 10.0 mi NW 5.8 mph - N/A   Scattered Clouds
11:52 PM 34.0 °F 28.8 °F 26.1 °F 73% 30.24 in 10.0 mi NW 5.8 mph - N/A   Clear